RH
86 81 81 83 86 90 91 89 86 85 85 70 50 53 62 50 33 35 61 84 86 87 93 94 92 92 94 98 101 100 100 98 94 94 96 99 100 100 100 100 100 100 98 98 99 98 98 98 99 100 100 100 100 99 98 94 89 89 91 88 82 78 79 84 89 96 100 98 95 95 96 93 89 87 86 83 79 82 86 83 81 87 89 86 88 86 85
87 83 80 81 85 90 92 92 90 88 89 84 76 83 87 72 58 57 69 85 90 92 96 95 94 95 96 100 101 99 100 96 92 93 95 97 99 100 100 100 100 100 100 100 100 99 98 97 99 100 100 100 100 100 100 98 93 92 91 87 82 80 84 92 98 99 99 98 94 92 94 95 92 90 93 92 88 89 93 90 89 91 88 86 88 88 89
87 88 85 80 80 89 95 95 91 87 88 89 88 92 94 87 81 75 77 91 99 99 99 100 99 99 100 100 100 100 100 97 93 92 92 94 98 99 100 100 100 100 100 100 100 99 97 98 99 100 100 100 100 100 100 99 97 93 90 88 85 85 91 97 100 100 100 99 96 95 97 99 97 95 96 97 95 93 95 95 93 92 89 87 90 91 92
87 91 88 86 82 80 85 94 98 95 93 94 92 91 92 88 84 85 87 94 99 99 99 100 99 100 100 100 100 100 100 98 95 92 90 91 93 95 99 100 99 100 99 99 101 99 96 97 100 100 99 98 99 99 98 96 96 94 93 91 87 87 93 97 97 99 100 100 99 98 100 100 98 96 95 96 96 95 97 98 94 92 91 91 92 92 90
89 94 92 94 79 60 68 89 101 100 97 96 93 92 92 86 83 86 88 90 96 98 96 97 100 100 99 100 100 100 100 100 99 94 89 88 88 89 94 98 99 100 99 99 101 99 95 97 100 101 99 96 97 98 96 93 92 93 95 94 88 87 90 92 95 98 99 101 101 100 100 100 99 98 96 97 96 96 97 97 96 94 92 91 91 89 87
86 95 94 86 64 56 76 92 94 95 93 90 93 98 99 93 86 85 86 90 95 95 92 94 100 100 100 101 100 100 100 101 100 94 87 86 86 85 88 93 96 98 98 98 99 96 95 98 100 99 97 94 94 95 94 92 90 89 91 91 87 85 85 87 89 90 91 94 98 100 100 100 100 99 99 99 99 99 98 96 95 91 85 85 89 89 89
75 80 74 64 59 72 91 91 84 84 83 83 91 98 97 93 89 89 91 91 92 96 97 97 99 100 100 100 100 100 100 98 95 90 85 85 85 84 85 86 88 93 96 95 95 94 94 96 97 95 93 90 89 90 92 92 88 85 87 88 86 84 82 82 83 84 85 85 90 98 100 100 100 100 99 100 100 99 99 97 95 88 82 85 91 92 91
69 65 58 63 78 91 94 89 84 83 79 80 86 93 96 92 86 88 95 95 94 98 101 99 100 101 100 100 100 100 98 93 89 86 85 85 83 82 83 81 78 82 86 87 89 91 91 91 91 89 87 86 86 86 89 89 85 82 83 86 87 86 84 85 85 87 90 88 88 95 100 100 100 100 100 100 99 99 99 96 93 90 83 80 82 86 87
69 68 73 83 90 93 95 95 91 87 86 85 83 90 99 95 84 85 94 96 97 99 100 100 100 98 97 98 100 100 97 91 87 85 85 84 82 82 81 78 74 71 72 75 79 83 86 86 84 80 77 77 78 79 81 83 80 79 82 88 92 93 92 94 94 94 97 95 91 95 101 100 99 99 99 96 93 93 91 84 85 88 82 71 71 78 81
67 68 79 88 85 83 91 95 92 89 91 92 86 85 92 94 87 85 88 92 98 101 99 99 99 96 94 97 100 100 97 91 88 87 85 84 83 82 80 78 75 71 68 68 68 71 76 76 72 69 67 67 69 69 70 72 73 75 81 90 97 99 98 98 99 99 100 98 93 95 101 100 98 99 98 95 93 91 83 74 75 81 81 76 73 74 75
67 63 71 81 79 78 86 91 90 88 91 96 90 78 81 91 90 85 87 90 95 98 97 98 99 95 92 96 101 100 96 93 90 88 87 85 84 83 81 79 76 73 69 65 62 63 65 63 60 60 61 62 65 65 64 64 66 71 80 87 93 98 99 99 100 100 100 99 95 93 98 101 100 100 100 97 97 95 84 74 75 80 83 81 76 71 72
69 65 69 74 72 76 88 89 82 82 89 94 83 67 72 87 89 85 88 90 92 96 97 96 96 92 90 95 100 98 93 91 89 86 84 83 81 81 81 80 78 75 70 65 60 58 57 54 53 53 56 62 67 65 62 62 63 66 76 85 88 90 92 93 94 95 97 99 97 93 94 99 100 100 100 98 96 95 89 83 85 87 86 83 82 83 84
68 68 72 74 69 75 86 84 80 85 88 82 71 69 80 89 88 87 90 91 93 97 96 93 95 96 94 93 95 95 90 87 86 83 81 81 79 79 79 77 74 70 66 61 57 55 53 51 49 48 50 57 61 58 57 59 58 56 63 75 82 85 86 85 86 89 92 96 100 97 95 98 100 100 100 100 98 98 96 92 92 90 84 80 85 90 92
69 69 70 70 66 73 84 84 82 87 82 73 75 86 93 90 88 91 94 94 95 97 94 92 95 98 95 91 92 92 88 85 84 84 82 81 80 78 75 71 67 63 61 60 58 56 55 53 50 48 47 47 47 44 43 43 44 47 54 63 71 76 81 82 82 85 88 92 98 100 99 100 100 100 100 100 99 99 97 94 91 87 82 80 83 85 86
78 73 71 67 66 78 92 89 83 84 83 83 90 96 93 89 91 94 96 96 96 94 93 95 97 97 94 91 90 89 86 86 86 85 83 79 74 70 69 69 68 65 62 61 59 57 56 55 54 53 51 48 45 40 34 29 30 38 46 54 60 65 70 76 80 83 86 89 92 97 100 100 100 100 100 100 100 99 98 94 89 85 83 82 81 80 81
73 65 71 77 80 91 100 94 88 91 94 96 98 93 88 90 94 95 97 98 94 88 88 93 96 94 92 90 88 86 84 83 81 77 74 70 67 67 69 71 70 66 62 61 60 59 59 58 58 58 56 53 50 46 40 33 29 31 35 40 48 54 60 67 75 81 86 89 91 93 95 95 94 95 96 96 96 98 98 96 93 88 86 84 81 79 80
83 75 82 93 97 100 101 97 98 100 99 100 98 92 90 94 96 95 96 97 91 84 83 89 93 93 91 88 86 82 80 77 73 71 70 70 73 77 78 76 74 70 67 66 65 63 61 58 58 58 56 54 52 51 48 43 36 32 30 30 32 37 43 51 61 71 77 81 85 87 88 87 86 85 86 87 88 89 89 89 89 90 89 88 86 85 85
94 91 96 101 99 100 100 99 100 100 99 99 97 93 96 98 95 93 92 91 88 83 80 86 94 95 90 87 84 81 77 76 75 74 75 75 75 76 76 75 74 71 69 67 64 61 61 60 60 60 57 55 55 55 53 50 44 38 33 29 26 26 26 30 40 52 58 62 69 75 77 77 77 75 74 75 76 79 81 80 79 79 77 74 73 77 80
87 91 100 101 99 101 101 99 100 100 99 98 95 93 95 96 92 91 89 86 84 82 80 85 92 93 88 85 85 81 76 75 75 75 74 73 71 71 72 71 69 66 64 64 63 63 64 64 63 62 60 58 58 57 55 53 51 46 42 38 35 31 27 24 26 32 37 42 48 55 58 59 59 57 54 53 53 57 66 74 77 75 67 55 47 49 56
88 93 101 101 99 100 100 99 100 101 98 97 95 92 92 93 91 91 89 86 84 83 83 84 86 87 85 83 83 82 80 80 79 77 77 77 76 77 76 73 71 68 66 65 66 67 68 67 65 62 61 61 61 61 60 58 55 52 50 47 44 41 38 34 29 27 28 29 30 32 35 35 35 35 36 35 32 32 39 50 60 65 65 61 53 44 38
99 99 100 101 99 100 101 99 100 101 99 98 97 95 94 94 93 91 89 86 83 81 81 81 83 85 85 83 82 83 83 83 83 83 81 81 80 80 79 76 73 69 66 64 64 65 67 68 66 63 61 62 64 64 65 63 58 55 52 50 48 49 49 46 42 36 33 30 28 27 28 28 28 28 29 31 30 28 29 33 39 44 49 54 58 58 51
99 94 94 95 93 96 101 100 99 101 99 97 98 99 97 95 92 89 88 86 84 82 82 83 84 84 84 83 81 81 82 84 86 86 83 81 80 78 77 74 69 65 61 55 52 57 65 68 67 65 63 63 65 66 65 62 57 56 56 55 53 54 54 52 49 44 40 37 35 35 35 36 36 35 33 33 33 32 32 34 35 37 38 39 42 46 48
84 82 89 93 91 95 101 101 99 101 99 95 98 100 99 95 90 87 86 87 87 85 83 81 79 79 82 83 82 83 85 85 84 83 81 79 76 74 73 70 67 65 60 49 45 54 66 69 68 67 65 65 66 65 63 58 54 53 55 56 58 59 58 58 56 51 47 44 42 43 45 46 46 45 42 39 37 36 36 37 36 36 38 40 40 38 35
83 86 92 94 94 98 102 99 99 101 98 94 95 96 94 90 86 85 85 86 84 81 80 78 76 76 79 81 80 79 79 78 78 79 78 75 71 70 70 69 67 66 62 51 50 63 72 70 68 69 67 66 67 64 61 58 55 53 51 51 56 61 63 62 60 54 51 50 48 49 53 55 53 50 45 42 40 39 39 41 43 45 45 45 45 44 40
90 93 95 96 97 101 101 99 100 102 97 91 89 89 88 87 86 84 82 79 74 72 72 72 71 70 71 72 72 71 70 71 72 72 71 70 68 68 70 70 68 69 63 50 52 69 76 71 69 70 68 68 69 66 62 60 58 56 52 51 54 59 60 59 57 54 53 54 53 54 57 58 54 49 44 42 43 43 44 47 52 56 55 53 51 51 50
90 93 97 99 99 99 100 100 100 100 95 89 87 88 89 87 83 78 73 70 67 66 67 66 64 63 62 64 66 67 67 68 69 68 68 68 67 67 71 71 70 72 63 44 43 64 77 73 71 72 70 70 70 67 64 63 62 59 56 54 57 59 58 56 55 53 51 53 55 57 58 56 52 46 42 41 41 40 42 48 55 61 63 62 59 56 54
93 93 94 98 101 100 99 99 98 97 94 91 90 90 88 82 75 72 71 71 69 67 66 63 59 57 56 57 58 61 62 62 62 61 60 61 64 69 73 73 73 72 58 39 39 61 76 75 72 73 72 71 70 67 66 66 65 63 59 57 58 60 59 58 57 54 51 52 56 59 59 57 53 49 44 41 41 43 47 53 59 66 70 69 66 63 62
97 93 90 92 97 97 97 97 95 92 89 86 85 84 81 76 74 75 75 73 69 65 63 59 53 49 49 49 49 51 51 50 49 46 41 41 54 68 75 74 73 67 50 37 44 64 75 76 74 73 73 72 71 69 69 68 67 65 63 61 61 63 64 64 62 58 56 55 56 58 59 58 55 50 45 43 45 52 62 70 74 76 77 75 71 70 70
94 90 87 88 90 90 90 91 89 84 80 79 79 78 76 75 75 75 72 67 63 60 58 55 52 49 48 48 48 48 49 49 49 47 39 33 41 60 73 73 68 59 48 44 54 68 75 76 75 74 73 73 72 71 70 69 67 67 66 66 67 68 69 68 67 65 63 62 60 60 60 60 57 53 51 51 51 55 65 78 85 85 82 79 75 73 72
90 86 86 86 85 83 83 82 81 80 78 77 77 75 72 70 68 67 64 60 57 56 56 55 54 53 51 50 51 51 51 52 51 49 41 30 27 41 58 63 59 55 54 57 64 74 80 79 76 75 74 73 72 72 72 70 69 70 71 71 72 73 73 71 69 66 66 67 66 64 63 62 61 59 58 60 61 60 65 77 88 89 85 81 79 77 75
89 86 85 86 85 82 80 79 78 78 77 75 73 71 66 62 60 59 58 56 55 55 55 54 53 52 52 53 54 53 52 54 53 43 29 18 14 23 39 51 54 57 61 63 67 75 82 83 81 80 79 76 75 75 76 74 73 73 75 75 75 75 76 76 71 65 65 68 70 69 67 66 66 64 62 63 65 64 65 74 85 89 85 81 80 80 79
87 88 89 88 85 81 79 76 74 74 72 68 66 63 59 55 53 53 54 54 52 52 52 52 51 53 53 53 53 53 54 54 47 31 15 9 10 16 30 46 56 60 61 61 63 70 77 81 84 86 87 84 82 82 82 81 78 76 77 78 77 75 76 78 75 67 62 65 68 69 68 68 68 68 65 63 65 66 66 71 81 87 84 78 77 79 80
85 89 89 86 82 79 77 73 69 66 62 58 55 53 51 49 49 50 50 50 49 49 50 50 49 50 51 52 54 56 54 45 32 19 12 12 15 22 35 52 63 65 62 61 62 66 69 73 78 84 87 86 84 85 85 85 83 81 80 81 80 77 76 80 80 73 65 64 67 69 69 69 69 69 67 64 64 66 67 69 77 84 83 78 76 78 79
80 81 80 76 74 72 71 68 64 59 54 50 48 47 46 46 47 48 48 48 50 50 51 50 50 51 53 54 53 48 41 34 28 25 24 23 25 32 44 58 67 70 67 64 63 64 64 65 69 73 76 77 78 80 81 81 81 82 82 82 83 82 80 81 83 80 73 68 68 69 70 70 70 70 69 66 64 65 68 69 72 78 82 80 78 77 78
72 71 68 65 64 63 62 60 58 53 49 47 46 46 46 47 47 48 49 49 50 48 44 41 41 41 40 38 36 33 32 36 40 42 41 41 43 48 55 61 66 68 66 62 61 60 60 59 60 61 64 69 73 75 75 75 74 75 77 79 83 85 83 81 83 85 81 76 74 73 71 71 73 74 73 70 66 64 66 68 69 72 76 79 78 77 77
62 61 60 58 57 54 52 51 49 46 45 47 47 47 48 48 48 49 50 48 43 37 28 20 19 20 20 21 23 24 25 28 30 33 36 41 44 47 50 54 56 57 58 57 55 54 54 55 54 53 56 61 65 67 67 66 64 64 67 71 78 85 86 82 83 86 84 79 79 77 71 71 77 80 79 76 71 66 64 66 67 68 71 74 75 76 77
54 52 52 51 50 48 46 45 45 44 44 45 45 46 47 48 48 49 48 43 36 28 18 10 8 11 15 18 21 20 18 16 16 17 19 21 22 24 26 27 29 32 37 42 46 49 52 52 51 50 51 54 59 61 61 59 55 54 57 63 71 81 87 85 84 86 86 81 78 74 72 75 82 85 84 82 77 70 65 65 66 66 68 71 72 73 73
50 47 45 45 45 45 44 43 43 44 44 44 45 46 45 46 48 48 44 39 32 22 14 9 10 14 20 25 28 29 28 28 27 26 26 26 26 25 23 19 15 14 16 20 28 39 45 47 49 51 52 55 56 53 48 45 44 45 51 60 68 75 82 83 81 82 85 84 78 74 74 80 86 88 86 83 79 73 67 64 65 65 64 66 71 74 73
45 44 43 43 43 43 44 44 45 45 44 44 44 45 45 47 46 43 39 35 28 19 15 16 18 22 29 35 37 38 39 39 38 37 37 38 38 37 35 31 26 20 15 14 17 24 30 32 36 41 44 44 40 31 22 21 26 31 38 49 60 68 76 83 85 83 82 80 77 75 76 79 84 88 86 82 80 78 72 67 66 68 67 67 72 77 77
42 42 42 43 44 45 46 47 47 45 43 41 38 37 39 40 39 38 39 37 29 23 23 27 29 33 38 42 43 43 44 45 44 43 42 41 40 40 40 40 38 35 31 26 23 22 21 18 18 20 22 20 16 11 9 12 19 23 27 34 43 52 62 73 83 87 84 81 80 80 79 79 81 85 85 81 81 83 79 72 68 69 71 72 74 77 79
41 42 42 43 46 48 47 46 45 43 42 40 36 32 32 34 36 40 43 42 38 35 35 35 36 38 42 43 44 45 46 46 46 46 46 45 45 43 41 41 43 44 44 41 37 33 29 22 16 12 11 10 10 14 20 26 32 35 35 34 37 40 44 51 62 74 83 87 87 85 83 83 83 84 83 81 81 82 82 79 75 73 72 73 74 76 78
43 44 44 46 48 48 45 43 43 42 41 41 39 37 37 39 41 43 45 46 45 45 44 42 41 42 43 43 44 46 46 47 48 48 48 49 49 47 45 43 42 44 47 49 48 45 41 34 24 17 15 17 23 31 39 44 46 47 46 44 42 42 41 42 45 52 62 74 83 87 87 85 83 83 85 84 82 81 82 82 80 76 73 73 73 74 75
42 42 42 44 47 45 42 41 42 42 43 43 43 42 42 43 44 45 46 48 49 49 48 47 47 46 45 45 46 46 47 48 49 50 51 52 51 51 50 48 44 41 43 47 51 51 50 46 38 29 25 30 37 44 49 51 51 52 51 50 49 47 46 46 46 45 47 52 63 75 83 84 82 83 86 86 85 83 82 79 74 71 71 73 73 73 72
39 38 39 40 42 41 41 42 43 43 43 44 44 44 45 45 45 46 47 48 49 49 48 48 48 47 47 47 46 47 49 50 51 52 54 54 53 54 54 53 49 46 43 44 48 51 53 53 49 41 35 37 43 49 52 53 53 54 54 54 53 52 50 50 51 52 52 50 50 55 64 70 74 79 83 85 85 84 82 78 74 73 72 73 73 73 71
37 37 38 39 39 40 41 42 42 42 43 43 44 45 45 45 46 46 47 47 48 48 47 47 48 48 49 49 49 51 52 53 53 55 55 55 56 57 57 55 52 49 45 43 45 49 53 56 55 51 45 43 46 50 52 53 54 54 55 55 55 56 55 54 54 54 56 57 55 54 56 61 69 77 83 85 85 84 82 79 78 77 75 72 70 70 69
37 38 39 39 39 39 40 40 40 41 42 43 44 44 45 45 46 46 47 47 47 47 48 49 49 49 50 51 52 53 53 53 54 55 56 56 57 58 57 55 53 51 48 45 46 49 53 55 56 55 53 50 49 50 51 52 52 53 53 53 55 56 56 57 58 56 56 57 59 60 60 63 69 76 81 81 81 82 84 83 79 77 76 73 71 71 71
37 39 39 39 39 40 40 40 40 41 41 43 44 44 44 45 45 45 46 47 47 48 48 49 49 50 51 52 53 53 54 54 55 56 57 57 57 57 58 57 56 54 52 50 48 50 54 56 56 56 56 55 53 52 51 50 50 51 52 56 60 61 61 59 59 58 57 57 59 60 61 63 66 67 67 68 70 74 79 82 81 78 77 76 74 72 71
36 38 39 39 40 40 40 40 41 42 42 42 43 44 44 44 45 46 46 46 47 48 48 49 50 51 51 52 53 54 55 55 55 55 56 55 54 55 57 58 57 57 56 54 51 51 55 58 57 55 53 53 52 52 52 51 50 52 56 60 63 64 65 64 63 61 59 58 59 60 62 65 66 65 62 60 60 62 67 75 80 81 81 81 80 77 73
34 36 38 39 40 40 40 40 41 41 41 41 42 43 43 44 45 45 45 46 47 47 47 47 48 49 50 51 52 54 54 53 52 51 51 51 50 52 54 56 57 58 57 56 54 53 55 58 59 56 53 50 49 49 49 49 50 53 58 61 62 63 65 67 68 66 63 61 60 61 62 65 68 68 66 63 60 57 60 68 78 84 86 84 80 76 72
33 35 38 39 39 38 38 39 39 40 40 40 41 42 43 43 43 44 45 46 47 47 47 45 45 46 47 49 50 52 53 53 52 52 52 52 52 53 54 55 57 58 58 57 56 55 55 57 57 56 53 52 51 50 49 50 51 54 58 61 64 66 67 67 67 68 66 63 61 60 62 64 66 68 69 68 65 61 60 64 72 79 81 78 73 70 70
34 35 37 38 38 38 37 38 39 40 41 41 41 42 43 43 42 43 44 44 45 46 47 47 46 45 46 48 50 51 52 53 54 54 54 54 53 53 54 55 57 59 59 59 59 59 59 58 57 57 56 57 59 59 58 58 59 61 63 65 66 66 65 64 66 68 67 63 61 60 61 63 67 70 73 73 71 67 64 63 64 68 71 71 69 69 69
34 35 37 38 39 38 38 38 38 39 40 41 42 43 44 44 43 43 44 44 44 44 45 46 47 46 47 48 49 49 49 50 52 53 52 50 48 48 50 53 56 58 60 61 61 60 59 59 59 60 61 62 63 63 64 64 64 65 66 67 67 65 63 62 64 67 66 63 62 62 62 64 68 72 74 76 76 74 71 69 66 65 66 68 70 69 66
Wind_Speed
7 6 5 5 8 8 7 7 4 2 2 0 3 3 3 5 5 3 8 13 11 11 14 13 13 13 13 14 15 15 12 13 15 15 14 12 12 13 12 12 12 14 15 15 15 17 18 18 19 21 22 23 24 23 21 21 22 21 22 21 20 18 17 15 10 5 2 1 1 1 3 4 4 5 7 10 14 16 17 17 16 16 16 16 16 14 12
9 9 6 6 8 9 10 10 8 5 4 3 5 3 1 1 0 3 13 14 6 4 8 11 13 15 17 17 17 15 13 15 16 15 15 14 14 14 12 12 12 13 14 15 14 17 18 19 20 22 23 25 26 24 22 21 22 22 22 22 22 21 19 17 12 8 5 4 3 2 1 3 4 5 7 10 13 15 16 17 16 15 16 16 15 13 12
7 8 7 7 7 10 12 12 10 8 7 6 7 5 3 2 4 8 14 14 6 3 7 14 16 17 17 17 16 14 13 14 16 16 15 13 13 13 12 11 12 12 13 13 14 16 19 20 21 22 23 25 26 24 23 22 23 23 23 23 24 23 21 19 15 11 9 8 8 7 5 6 5 5 7 7 10 12 13 15 15 15 17 17 15 12 10
3 4 5 6 7 11 13 11 10 9 6 5 5 4 2 2 9 15 13 9 6 5 10 15 16 16 17 15 14 14 12 12 14 15 15 13 12 13 12 11 11 11 13 14 14 17 20 21 21 21 22 24 25 24 24 24 24 24 24 25 26 25 23 22 19 16 14 12 11 10 8 9 7 6 6 6 10 12 13 14 14 16 18 16 13 11 10
3 1 2 2 3 6 7 5 6 6 4 3 5 5 4 2 7 11 6 4 7 9 11 12 12 13 14 13 12 13 12 12 12 14 15 13 12 13 13 12 10 11 13 15 16 19 21 21 21 20 21 23 24 23 23 22 23 25 26 26 27 27 26 24 23 22 21 18 16 12 10 9 7 5 5 6 10 14 14 13 14 16 15 12 10 9 10
4 2 2 1 4 5 2 2 4 3 1 5 6 6 6 6 5 7 6 8 11 10 10 11 12 13 13 14 13 12 11 11 12 14 15 13 12 13 13 12 12 12 14 15 16 19 20 19 19 19 20 22 22 22 21 21 23 25 27 27 27 28 28 27 26 25 25 23 20 17 13 9 6 4 4 5 9 14 15 15 14 13 11 8 8 9 11
4 1 1 4 5 2 1 2 1 2 6 9 11 10 8 7 9 12 12 12 11 11 13 16 18 18 18 17 14 11 10 11 12 15 15 13 12 12 12 12 13 14 14 14 15 17 17 17 18 18 19 19 20 20 18 18 22 25 26 27 28 28 28 28 27 26 26 25 22 20 17 13 7 5 4 3 4 6 11 14 13 13 12 9 9 10 11
3 3 2 3 2 0 1 3 3 4 7 8 7 8 8 6 8 12 13 11 11 15 18 18 20 22 22 19 15 11 12 13 14 16 15 13 12 12 12 12 14 14 13 12 13 14 15 16 16 17 17 17 17 18 17 18 20 23 24 25 27 28 28 27 26 26 26 26 24 21 18 14 10 7 5 3 3 2 3 7 8 11 14 12 9 9 8
1 4 3 2 2 2 2 3 3 2 4 3 2 3 3 3 4 10 13 12 12 14 17 18 20 22 20 16 12 10 12 14 14 15 15 13 13 12 13 12 13 13 13 12 12 12 13 13 14 15 15 15 16 16 18 19 22 22 23 24 25 26 26 27 26 26 25 26 25 21 17 14 11 10 7 5 6 6 4 3 3 6 12 12 9 7 6
1 3 4 3 3 3 3 5 3 2 4 3 1 2 2 2 5 10 14 14 13 14 15 16 18 16 11 7 6 9 12 14 14 14 14 13 12 12 12 12 12 12 12 12 11 11 11 12 13 14 14 15 16 16 18 21 23 23 23 25 25 24 24 24 25 25 24 24 25 22 17 13 11 10 9 8 10 9 6 5 5 3 9 9 7 5 4
2 3 4 3 2 1 3 6 4 2 2 3 2 2 2 6 10 13 15 16 15 16 16 15 12 7 4 3 5 8 12 13 14 14 13 12 12 12 11 11 11 12 12 12 11 11 12 13 14 14 13 14 16 17 18 19 21 23 24 24 25 24 23 22 22 23 23 23 24 23 19 14 10 9 9 9 9 10 7 4 2 3 7 8 7 6 5
3 3 2 1 0 1 2 4 3 1 1 2 3 3 2 8 14 16 16 17 17 17 16 12 6 0 1 6 10 12 13 14 14 13 13 12 12 11 10 9 10 10 11 11 12 13 15 15 15 13 12 12 14 15 16 17 20 23 23 23 23 23 23 22 22 22 22 22 21 21 19 16 11 9 10 11 10 11 11 9 7 9 9 7 6 7 7
3 3 2 1 1 1 2 1 1 1 1 3 4 2 2 10 15 14 14 16 17 16 14 8 4 5 8 15 19 17 15 15 14 14 14 13 13 13 13 12 12 12 12 13 15 17 17 15 14 13 12 11 12 12 14 17 20 22 22 20 20 21 22 23 24 23 23 21 19 17 17 16 12 10 11 12 12 13 13 13 14 15 12 7 6 9 9
3 2 2 1 0 0 1 1 2 1 2 3 1 2 6 13 16 15 14 15 15 14 12 11 12 15 19 22 22 18 16 16 17 16 16 16 17 16 16 15 14 14 15 16 17 18 17 16 15 14 13 14 15 16 18 20 20 19 19 19 19 20 21 24 25 25 26 25 21 17 14 12 11 12 13 13 14 15 15 16 16 16 13 9 8 9 7
2 2 2 2 2 2 1 1 1 0 1 1 4 8 12 14 16 16 16 16 16 15 15 17 20 23 24 22 20 19 18 18 18 17 17 16 15 14 14 14 14 14 16 16 17 16 15 15 14 14 14 16 18 20 22 22 20 17 17 17 17 19 21 24 26 26 27 28 27 22 17 13 11 12 12 11 12 12 12 12 13 13 10 7 5 5 6
1 2 2 1 0 2 1 1 2 1 1 3 8 12 14 15 15 16 17 17 16 15 18 23 24 24 24 22 21 20 19 18 17 16 15 14 13 13 14 14 14 14 15 15 16 16 15 15 15 15 15 18 21 23 24 22 19 18 18 17 17 18 21 23 25 26 27 27 28 26 23 20 18 17 16 15 15 15 13 12 11 10 9 5 2 3 4
1 3 3 2 1 2 3 2 3 3 5 8 10 13 15 15 14 16 18 18 17 17 22 25 25 23 23 23 21 20 19 18 16 15 14 15 16 16 16 16 15 15 15 15 15 15 16 15 16 16 17 19 22 24 23 21 20 20 19 18 19 20 20 22 23 23 24 25 25 24 24 23 23 23 22 21 22 22 21 20 18 17 15 12 9 7 5
5 6 6 5 4 5 6 5 5 6 9 11 13 15 15 14 15 20 21 20 20 21 23 24 22 22 23 23 21 20 19 19 18 17 17 17 16 16 16 15 14 13 13 13 14 15 16 16 16 17 17 19 21 21 20 19 19 19 19 20 22 22 22 22 21 21 21 21 21 21 21 21 21 21 20 19 20 20 20 20 20 20 19 18 17 15 13
4 3 4 5 6 6 6 6 7 9 11 11 14 16 16 15 19 22 21 20 21 22 23 24 23 23 23 22 20 18 18 18 18 17 16 15 15 15 15 14 13 12 13 14 15 16 17 16 16 17 18 20 21 21 19 18 17 16 17 19 21 23 23 22 21 21 20 20 19 19 18 18 18 18 17 16 16 17 16 16 15 15 15 16 17 17 17
3 4 6 8 9 8 7 7 9 11 12 12 13 16 18 19 22 22 20 21 23 23 23 24 25 23 20 20 20 19 17 17 17 16 16 17 18 19 18 17 16 16 16 17 16 17 16 16 15 16 17 19 20 20 21 20 18 17 16 17 19 20 21 21 21 21 20 20 19 18 18 17 16 17 17 16 16 17 17 16 14 13 13 13 14 16 17
6 6 8 10 10 8 5 7 9 11 13 15 16 18 19 21 23 23 22 21 21 22 23 23 23 23 23 22 23 22 21 21 20 19 20 20 20 20 19 17 16 16 17 16 16 16 16 15 14 14 16 17 18 19 20 20 19 19 19 19 19 19 20 20 20 20 19 19 19 18 17 17 17 17 17 17 16 17 17 16 15 13 12 12 13 14 14
4 5 9 10 6 5 5 8 10 12 15 18 21 22 23 23 23 24 24 23 21 21 22 23 25 27 27 26 25 24 22 21 20 19 19 19 18 17 17 16 16 16 16 16 15 15 15 14 13 14 15 16 17 17 18 18 19 19 19 20 20 21 20 20 20 20 20 20 19 19 19 18 18 18 17 17 16 16 16 15 14 12 11 10 10 10 10
4 10 14 10 7 9 10 11 13 15 18 21 24 24 24 25 25 26 26 27 26 25 25 26 27 28 26 23 22 20 18 17 17 17 17 17 16 15 15 14 14 15 16 16 15 15 15 14 14 14 16 16 17 17 17 17 18 18 19 20 21 21 21 21 21 21 21 21 20 20 20 19 19 19 18 17 17 16 16 14 13 12 11 10 9 7 6
9 14 16 11 11 14 14 15 17 19 21 24 26 26 26 27 27 27 28 29 30 30 29 26 24 24 22 19 17 17 17 16 16 16 16 15 14 14 13 13 12 13 14 16 16 15 15 14 14 15 16 16 16 16 16 16 16 17 18 19 20 20 20 21 21 21 21 21 20 20 20 19 18 18 18 18 17 16 15 14 14 13 12 11 10 9 8
13 16 15 14 18 19 18 18 19 18 21 26 27 27 28 28 28 29 31 31 31 30 28 25 23 21 20 18 18 18 18 17 16 16 15 13 13 13 12 11 11 12 14 15 15 15 14 14 14 14 15 16 15 15 15 15 15 16 17 18 18 19 19 19 19 19 19 20 19 19 19 19 18 18 19 18 17 15 14 14 13 12 12 12 12 11 10
21 21 20 21 22 21 20 20 19 18 23 28 29 28 29 29 30 32 33 32 30 28 26 25 22 20 19 18 18 17 17 17 17 16 14 13 13 13 12 11 11 11 13 14 14 14 14 14 13 14 15 16 16 15 15 14 14 15 16 17 17 17 17 17 17 17 18 18 18 18 18 18 18 19 19 18 16 14 13 13 12 12 12 13 13 12 11
24 26 27 26 20 17 19 22 23 24 27 29 30 31 31 32 33 33 31 29 27 25 22 21 20 19 19 18 18 17 17 17 16 14 13 13 13 13 12 11 10 10 11 13 13 14 13 13 13 14 15 16 16 15 14 13 14 15 15 15 15 16 17 17 17 17 17 17 17 17 17 17 18 18 18 17 16 15 14 14 14 13 14 14 14 14 12
20 23 27 26 24 23 24 26 29 31 31 32 33 34 33 32 31 29 27 25 24 22 21 20 20 20 20 20 19 19 18 16 15 14 13 13 13 12 11 10 9 9 10 12 14 13 13 12 12 14 15 15 14 14 13 12 13 14 14 14 15 15 16 17 17 17 16 16 16 16 16 16 17 18 18 17 17 16 15 15 15 15 15 15 15 14 13
19 22 27 30 33 35 35 34 34 35 34 33 33 31 30 30 28 26 24 23 22 21 21 20 19 19 19 19 18 17 16 15 14 13 13 12 12 11 10 9 8 8 10 13 14 13 13 12 12 13 14 13 12 12 12 12 12 13 13 14 14 14 15 15 16 16 15 15 15 15 15 16 17 18 19 19 19 18 15 15 15 15 15 15 15 14 13
24 28 32 34 36 38 38 37 36 34 32 31 29 27 27 26 25 24 23 22 22 21 19 18 17 17 16 16 15 14 13 12 12 11 11 11 10 10 9 8 8 9 11 14 14 14 13 13 13 13 13 12 12 12 12 12 12 13 13 13 13 13 14 14 14 14 14 14 14 14 14 15 17 18 19 20 20 19 16 14 13 14 15 15 15 14 14
30 32 34 34 34 35 37 35 33 31 29 27 26 25 24 24 24 24 23 21 20 19 17 16 15 14 13 12 12 11 10 10 9 9 9 10 10 10 10 9 9 10 11 13 13 14 13 13 13 13 12 11 11 11 10 11 11 12 12 13 13 13 13 14 15 15 13 12 12 13 14 15 16 17 18 19 20 20 17 13 12 13 14 14 15 14 14
34 31 29 29 30 31 32 31 30 28 25 24 25 24 24 24 24 23 22 20 18 17 16 14 13 12 11 10 9 8 8 7 7 8 9 10 11 11 11 10 9 10 11 12 12 13 12 12 11 11 10 9 9 8 8 9 10 11 11 11 12 13 13 14 16 17 15 13 13 13 13 14 14 14 15 16 18 20 18 14 11 12 13 14 15 15 14
35 31 30 30 31 31 30 28 27 25 24 24 25 25 24 23 23 21 20 19 17 15 14 13 12 11 11 9 8 7 6 6 7 9 10 12 12 12 12 11 10 10 10 11 11 11 11 10 10 9 8 7 7 6 6 8 9 9 9 9 9 11 13 13 14 16 16 15 14 14 14 14 13 13 13 13 15 17 17 15 12 11 12 14 16 15 13
31 31 32 33 32 32 30 28 26 25 25 26 25 25 23 22 20 19 17 15 14 12 12 11 12 12 11 10 9 7 6 7 9 11 12 13 13 12 12 11 9 9 10 10 10 10 9 9 9 8 7 7 7 6 7 7 7 7 8 7 7 8 11 12 12 14 15 15 14 13 13 13 13 13 12 12 12 14 16 15 13 12 11 13 15 14 12
27 28 29 29 28 27 27 27 26 27 27 27 25 23 21 19 18 17 15 13 12 11 11 12 13 12 11 11 10 10 10 12 13 14 14 14 13 12 12 10 9 9 8 8 8 8 8 8 8 7 7 7 7 7 7 7 7 6 6 6 6 6 8 9 10 11 12 13 13 13 12 12 13 14 14 13 11 11 13 15 15 14 13 12 12 12 12
27 27 26 26 26 24 24 25 26 25 25 24 22 21 19 17 16 15 13 12 11 11 12 13 14 14 14 14 14 14 15 15 15 15 15 14 13 12 11 10 9 8 8 8 7 7 7 7 7 7 7 6 6 7 7 7 7 7 6 6 6 5 5 7 8 9 10 11 12 11 11 12 14 14 13 13 11 10 10 12 14 15 14 12 11 10 10
24 25 25 24 24 23 23 24 23 22 21 20 19 18 17 16 15 13 13 13 13 13 13 15 16 18 19 19 19 19 19 18 17 17 16 14 13 12 11 9 9 8 7 7 7 7 7 7 6 6 6 6 6 6 6 7 7 7 7 6 6 5 5 5 6 7 7 8 9 9 10 12 13 12 11 12 12 11 10 10 11 12 14 13 11 10 8
23 24 24 23 22 22 22 21 20 19 18 17 16 16 15 15 14 14 15 16 15 15 16 18 20 21 23 23 22 21 20 19 18 17 16 15 14 13 11 10 10 9 8 7 6 7 7 7 6 6 6 6 5 5 6 6 7 7 7 7 6 5 5 5 5 6 6 6 6 6 8 11 12 10 9 11 12 12 11 10 9 10 11 12 11 10 9
24 23 23 22 22 21 20 19 18 16 16 16 16 15 15 15 17 18 19 18 17 17 18 20 22 23 23 22 21 19 18 17 16 15 14 14 13 12 12 11 10 9 9 8 7 7 7 7 6 6 5 5 5 5 6 7 7 8 8 8 6 5 5 4 4 5 6 6 6 6 7 10 10 9 8 9 10 10 10 11 11 10 9 10 11 11 10
24 23 23 22 21 19 18 17 16 16 17 17 17 16 17 19 21 22 21 20 19 19 19 19 20 21 20 19 18 17 16 15 14 12 12 11 10 10 10 9 9 9 9 8 8 8 7 6 6 5 4 4 5 6 7 8 8 9 9 8 8 7 5 4 4 4 5 6 6 6 7 8 9 9 9 9 9 9 8 10 12 12 11 10 11 12 12
23 23 22 21 19 18 17 17 17 19 19 19 18 18 20 21 22 22 21 20 20 20 19 17 17 17 17 16 15 14 13 12 11 10 10 9 8 7 7 7 6 7 7 7 7 7 7 6 6 5 5 5 6 7 8 8 9 9 9 9 8 8 7 7 6 5 5 6 6 7 8 9 9 10 9 9 9 9 9 9 10 11 11 12 12 13 13
22 22 21 20 18 17 17 18 20 21 21 20 19 20 21 21 20 20 19 19 19 18 17 16 15 14 13 13 12 11 11 10 9 8 8 7 6 5 5 4 4 4 4 5 5 5 5 5 5 5 6 6 7 7 7 7 7 8 8 9 9 9 9 9 8 7 7 7 7 7 8 9 10 10 10 9 9 9 9 10 10 11 12 13 13 13 13
21 21 20 20 19 19 19 21 22 22 21 21 20 20 20 19 19 18 18 17 17 16 15 14 14 13 12 11 10 9 9 8 8 7 6 5 4 3 3 2 2 2 2 2 3 3 4 4 4 5 5 5 5 6 6 6 6 7 7 8 8 9 9 9 9 9 9 9 8 8 8 9 11 11 10 9 10 9 9 10 11 12 13 13 13 12 12
21 21 21 20 20 20 21 22 22 22 21 21 20 19 19 18 17 17 16 16 15 15 14 14 13 12 11 10 9 9 7 7 6 6 5 4 3 2 2 3 3 3 3 2 2 1 2 2 2 3 3 3 3 4 4 4 5 5 6 7 8 8 9 9 10 10 11 10 10 9 9 10 11 11 10 10 9 9 8 9 11 13 14 14 13 11 10
22 22 21 22 22 22 21 21 22 21 21 20 19 18 17 17 16 15 15 14 13 13 13 12 12 11 9 8 7 7 7 7 7 6 4 3 3 2 2 2 3 3 3 4 3 2 2 1 1 1 1 1 1 1 2 2 3 4 5 6 7 8 9 9 10 10 11 11 11 11 10 10 10 10 10 10 9 8 7 7 10 12 13 13 11 9 8
23 23 23 24 23 21 21 21 21 21 20 19 18 17 17 16 15 14 13 13 12 11 11 10 9 9 7 6 6 7 7 7 7 5 4 3 3 3 2 3 3 3 3 4 5 4 3 3 3 2 2 1 1 1 2 2 3 4 6 7 8 9 10 10 10 11 11 12 12 12 10 10 10 11 12 12 11 9 7 7 8 10 11 11 10 9 10
23 24 25 24 22 21 21 21 20 20 19 18 17 17 16 15 14 13 12 12 11 10 9 9 8 8 7 7 6 7 7 6 6 5 4 4 4 4 4 3 4 4 4 5 5 5 5 4 5 4 4 3 3 3 4 4 5 6 7 9 10 10 11 11 11 12 12 12 13 12 11 10 10 11 12 13 12 10 9 8 8 9 10 10 10 10 10
23 24 25 23 21 21 21 20 19 19 19 18 17 16 15 14 14 13 12 12 11 10 9 9 9 9 9 8 8 8 7 6 5 5 4 4 3 4 4 4 4 5 5 5 6 6 6 6 6 6 6 6 6 6 6 7 7 8 9 9 11 12 12 13 13 13 13 13 13 13 12 11 11 11 12 12 12 11 9 9 9 10 10 11 12 12 11
23 24 24 23 22 21 21 20 20 20 19 18 17 16 15 14 13 13 13 13 12 10 9 9 9 10 10 10 9 8 7 6 4 3 3 3 3 3 4 5 5 5 5 5 6 7 7 7 7 7 8 8 8 9 9 9 10 10 11 12 12 13 14 14 13 13 13 13 13 12 12 11 11 12 13 13 13 12 10 8 9 9 10 11 12 13 14
25 25 25 25 24 22 22 21 21 21 20 18 16 16 15 14 14 14 15 14 13 11 10 8 8 9 9 9 9 8 7 7 6 5 5 5 5 6 6 7 7 7 6 6 6 7 8 8 8 9 9 9 10 11 11 12 12 12 13 13 14 14 14 14 13 13 13 13 13 13 12 12 12 13 13 13 13 13 11 9 8 8 9 10 12 13 14
27 26 26 26 26 24 23 21 19 19 19 17 15 15 16 16 14 14 14 14 13 12 11 10 9 8 8 9 9 9 8 8 8 8 7 7 8 8 8 8 9 9 9 8 8 9 10 10 11 11 11 11 11 11 11 12 12 13 13 14 15 15 14 13 12 11 12 13 13 13 13 12 12 13 13 14 14 13 13 12 11 10 10 11 13 14 14
27 26 26 26 26 25 24 22 20 17 17 16 16 16 17 17 16 14 14 13 12 12 11 10 10 9 9 8 9 8 8 7 8 8 8 8 8 8 8 8 9 10 10 10 10 10 10 10 11 11 11 11 11 10 11 12 13 14 15 15 15 14 13 11 10 10 10 12 13 13 13 14 14 14 15 15 15 14 14 14 13 13 12 12 13 14 15
Wind_Direction
54 43 61 73 81 84 72 67 64 37 358 148 142 139 129 143 161 180 169 169 168 167 164 153 142 137 128 123 121 119 116 113 108 101 95 88 77 71 67 60 55 50 48 48 45 42 41 40 36 32 30 30 32 34 34 30 27 26 25 22 21 21 20 19 17 4 340 27 34 256 233 234 233 229 222 213 207 203 200 200 201 199 192 186 183 183 187
49 35 50 81 101 98 73 58 53 55 61 75 97 107 103 114 63 134 152 156 137 116 139 126 117 121 117 112 111 109 108 109 106 99 92 83 73 69 65 59 54 47 43 42 42 41 38 37 35 33 32 32 31 33 35 30 25 24 25 22 22 23 24 27 32 28 19 24 29 34 264 264 255 238 231 216 203 201 199 196 198 196 190 185 182 184 194
44 26 46 73 98 102 83 62 46 51 72 77 81 105 125 89 90 122 139 141 117 66 105 104 104 108 106 105 106 105 105 107 105 100 92 84 77 72 66 58 50 42 36 36 41 43 38 35 34 33 32 32 32 35 37 33 29 28 29 30 30 30 30 33 41 42 35 28 23 28 21 345 307 264 251 222 200 203 201 193 193 192 188 184 181 185 203
67 18 54 80 95 98 85 60 36 33 52 75 77 92 135 152 130 129 137 148 152 139 114 103 101 102 99 99 103 102 98 98 101 99 94 86 79 76 71 58 45 35 31 32 42 47 41 34 33 33 32 31 32 34 34 33 33 32 34 36 37 36 35 35 40 42 38 31 22 17 7 348 330 298 271 226 198 203 204 195 191 191 188 183 178 187 205
116 324 30 90 129 116 91 43 8 9 33 94 97 73 30 27 132 137 145 145 134 134 125 109 98 97 95 94 97 98 97 98 97 95 93 87 77 74 71 62 52 41 35 36 47 50 43 36 34 34 33 32 31 31 30 31 34 36 37 39 40 40 39 38 41 42 38 35 29 17 357 338 329 312 283 235 203 203 205 198 190 185 181 177 177 188 194
143 254 314 158 174 158 121 335 303 300 35 101 100 75 41 38 84 105 100 108 116 121 123 115 107 101 95 93 93 94 100 105 100 97 96 90 82 77 73 70 66 56 45 44 50 50 43 39 39 37 34 33 32 31 30 34 39 39 38 38 40 41 40 39 41 42 39 36 32 25 11 351 330 314 293 246 210 200 194 189 184 175 164 161 170 177 178
132 207 240 162 165 176 360 360 360 121 116 105 91 72 54 66 99 105 103 110 114 106 104 108 110 109 102 96 92 91 98 104 104 104 102 97 92 86 80 78 75 65 55 49 50 47 43 42 42 39 34 32 32 33 33 37 42 42 40 38 37 37 37 37 38 38 36 32 30 28 22 10 353 339 320 271 235 203 182 178 177 163 144 144 165 172 174
129 146 153 151 145 8 40 96 101 117 130 125 101 69 47 58 109 118 112 110 110 107 108 112 115 112 104 94 86 87 98 105 107 106 104 100 95 89 84 81 76 71 64 57 55 51 47 44 41 37 33 32 35 38 37 38 40 41 42 40 37 34 32 31 30 31 30 27 26 27 25 19 16 9 350 326 330 329 182 175 176 165 152 150 168 176 171
133 124 98 87 128 184 172 140 141 142 135 140 123 89 62 47 119 131 126 121 119 117 118 123 125 119 107 91 76 80 98 106 107 105 102 99 94 89 88 84 80 79 74 66 63 59 54 49 43 39 36 33 35 39 40 41 40 38 38 38 37 34 31 28 26 26 26 24 24 27 28 29 37 44 44 58 66 59 56 47 65 158 165 163 173 183 171
125 120 107 120 160 202 181 146 132 99 110 134 150 129 131 145 151 148 141 134 131 130 131 137 137 130 118 97 77 89 104 109 108 105 103 101 98 94 92 89 86 85 80 74 70 66 63 59 49 43 39 34 32 33 37 40 40 36 34 34 33 34 33 29 26 26 27 25 25 30 35 37 44 61 70 79 83 80 65 25 27 140 175 176 178 182 174
153 138 126 151 179 197 138 138 129 98 122 172 201 201 177 163 161 159 151 142 140 141 142 147 152 151 139 123 116 115 117 114 111 110 107 105 103 99 96 94 90 87 83 81 79 73 67 61 51 43 40 35 30 27 31 38 41 39 37 34 33 34 34 31 28 28 29 28 28 32 38 39 40 56 70 79 89 94 95 71 43 146 167 174 180 186 196
137 120 103 140 181 47 110 134 133 127 288 225 203 208 174 157 162 163 156 149 146 145 144 146 152 138 98 139 140 134 124 117 112 111 107 104 102 100 101 100 95 91 89 85 79 72 65 58 50 43 40 36 28 24 31 41 45 43 41 40 39 38 38 36 33 31 31 31 33 36 40 41 41 55 74 87 99 103 103 106 118 130 136 149 163 164 168
117 108 104 113 71 94 148 136 15 303 242 193 192 210 130 144 153 155 151 147 143 141 141 139 106 71 106 132 137 132 126 120 115 111 108 105 102 97 95 95 92 91 88 83 78 74 69 63 57 50 48 48 43 39 43 47 46 43 41 42 43 43 43 44 42 40 40 39 38 42 47 50 54 70 89 102 110 111 110 116 122 120 119 125 135 134 134
101 86 95 113 97 117 141 41 355 299 203 177 160 92 122 141 145 143 139 138 139 136 127 117 112 113 120 128 130 128 126 121 115 113 112 108 105 99 94 91 89 88 86 84 81 78 73 68 63 57 56 60 60 57 55 52 50 46 41 41 44 46 48 50 49 50 51 51 49 48 52 60 75 89 97 101 105 108 110 114 115 115 117 124 119 109 98
93 85 108 142 158 137 123 121 138 226 303 145 121 117 126 136 139 137 135 137 143 140 121 113 119 123 125 127 126 125 124 121 117 118 117 111 106 99 93 89 87 87 86 82 77 74 70 66 61 56 56 60 61 59 57 54 53 51 48 45 46 48 51 53 54 54 56 57 58 56 56 62 75 83 81 76 78 85 92 98 102 104 106 100 79 56 40
210 127 136 165 120 99 87 126 145 99 54 133 138 132 133 136 138 138 137 139 146 142 127 123 126 126 126 127 126 125 124 123 121 120 116 112 105 98 93 89 87 87 86 82 78 75 71 66 62 59 60 63 64 61 58 55 54 55 55 53 51 51 52 53 55 57 58 60 62 62 62 64 67 68 66 63 63 63 63 67 74 81 84 78 25 336 329
76 74 102 146 132 86 80 78 81 95 125 147 151 141 134 135 141 144 139 136 140 139 133 130 128 127 128 129 128 127 125 122 121 117 113 110 104 99 97 93 90 88 87 86 84 78 71 66 64 63 64 66 66 63 59 56 54 55 56 55 55 55 53 54 56 58 60 62 64 65 66 67 67 66 64 65 67 66 65 66 66 66 67 69 71 74 73
112 69 72 103 108 88 87 96 105 122 137 150 155 145 133 132 146 151 145 138 139 141 139 134 129 130 134 134 130 129 126 122 119 116 112 109 105 101 98 93 89 88 88 87 84 79 73 69 67 66 66 66 66 64 60 55 53 54 55 57 59 59 58 57 58 59 60 61 62 64 66 66 65 61 56 56 59 61 61 62 62 61 59 55 53 55 58
147 85 79 102 105 99 101 107 118 128 135 149 158 151 140 139 148 151 146 139 139 143 142 137 133 134 137 135 132 133 131 127 125 122 117 112 106 100 94 89 88 89 87 85 82 79 77 75 71 68 68 67 66 64 60 56 52 51 52 55 58 60 60 60 60 61 61 61 60 61 61 62 63 61 55 50 50 53 56 54 51 52 53 50 47 45 42
101 104 113 107 98 100 109 114 124 132 134 143 152 147 142 143 146 146 144 141 142 144 142 137 135 135 135 132 130 131 130 128 128 124 117 109 102 97 92 89 87 84 81 78 77 75 75 73 71 70 70 70 69 66 62 59 56 55 56 57 59 60 61 61 61 62 62 62 60 60 59 58 60 61 58 53 49 51 56 58 54 49 47 47 50 49 44
100 105 125 120 100 89 100 117 126 134 138 141 143 142 141 143 143 143 143 143 141 139 137 134 132 130 128 125 123 122 120 119 118 114 108 104 99 97 93 89 83 78 74 72 72 73 72 71 71 74 75 74 73 69 65 61 58 59 61 62 63 63 62 61 61 61 62 62 60 60 59 57 56 57 57 55 54 54 56 57 57 55 52 49 51 53 50
143 159 159 152 122 100 126 134 128 133 141 142 139 137 138 141 143 143 141 136 132 130 130 130 128 125 123 121 118 116 114 113 112 110 106 102 98 95 93 89 83 76 70 67 70 75 76 74 76 80 81 80 76 71 67 62 59 59 62 63 63 63 61 60 60 59 59 60 60 60 61 59 58 58 58 57 57 57 56 54 52 51 51 52 52 54 55
153 161 162 159 124 114 133 139 133 136 144 144 139 136 137 140 143 141 136 133 130 128 127 127 125 123 121 120 116 115 115 114 114 113 109 103 98 96 94 91 84 74 65 61 67 78 83 82 84 87 87 84 80 73 68 64 61 60 62 62 62 61 61 60 58 57 56 57 57 58 60 60 60 60 59 57 56 54 51 49 46 43 42 43 44 44 48
116 142 156 155 129 124 133 137 136 139 143 143 141 140 139 138 137 135 133 131 130 128 127 125 122 119 118 117 115 117 119 118 116 114 111 106 99 96 94 89 82 72 60 58 67 80 86 88 90 92 90 86 80 74 69 65 62 60 62 63 62 61 60 58 55 54 55 55 56 57 58 58 57 55 53 51 50 49 46 43 41 39 38 39 41 43 44
135 144 150 140 127 126 128 129 130 135 139 138 136 135 135 134 134 133 132 130 128 126 124 121 118 116 116 116 116 117 117 115 114 112 110 106 100 98 96 90 81 69 57 56 69 82 87 88 91 93 89 84 78 74 71 68 64 62 63 65 65 63 60 56 53 53 54 55 56 57 56 53 49 46 44 42 41 41 42 44 44 43 41 39 41 44 48
144 142 133 121 117 121 125 124 124 130 135 135 132 132 134 134 133 131 129 126 124 121 119 119 119 118 117 117 116 115 114 112 111 109 106 103 100 99 99 92 81 68 55 55 71 86 90 89 92 91 86 80 76 73 71 68 64 63 64 65 66 63 59 55 53 53 54 55 55 55 54 49 44 41 40 39 37 37 40 45 49 48 43 38 38 40 45
140 139 130 120 115 121 127 127 130 135 136 134 132 133 134 133 131 129 127 125 123 122 121 121 120 117 116 115 114 113 111 109 107 105 103 103 101 100 100 94 81 66 53 54 71 92 98 94 92 89 83 78 74 73 71 66 61 60 61 61 62 61 58 55 54 54 54 56 56 55 53 50 46 43 41 39 39 40 41 44 47 47 41 35 33 33 34
133 137 134 130 131 133 132 131 133 134 132 131 131 132 132 132 130 129 128 127 127 127 126 122 118 115 114 113 112 112 109 105 102 100 99 102 104 102 101 96 80 61 55 61 77 95 103 99 93 88 83 78 75 70 65 59 57 58 59 59 60 60 57 56 55 55 56 56 56 55 54 52 49 45 42 41 41 44 46 47 47 44 39 33 29 26 23
134 135 133 131 132 133 131 131 132 131 130 131 131 132 132 132 131 131 132 132 131 131 129 125 120 117 115 113 112 112 109 105 100 93 89 93 102 107 107 99 80 65 64 72 83 97 105 103 97 91 85 80 74 66 60 57 58 60 61 62 62 59 56 54 54 53 54 56 56 55 54 53 50 46 43 40 38 39 45 50 48 43 37 32 27 21 15
131 131 130 129 130 131 131 132 133 133 133 134 134 133 135 135 134 135 135 134 133 132 130 127 124 120 116 113 111 109 106 101 94 87 82 86 99 111 111 99 84 77 76 79 87 99 106 105 100 94 87 79 73 69 63 61 62 64 63 62 60 57 54 52 50 49 51 55 56 55 53 50 47 45 43 39 35 32 35 44 46 42 37 31 24 18 14
127 128 130 131 133 134 134 134 136 137 137 138 138 138 139 139 138 137 136 134 132 132 129 128 127 124 120 118 113 107 102 96 87 82 83 88 99 109 108 99 90 86 83 83 89 99 105 105 101 95 88 82 78 74 65 59 62 66 64 59 55 53 52 50 47 46 50 57 58 55 51 48 46 42 39 37 33 29 30 37 44 41 33 26 21 17 15
128 127 130 134 136 136 135 136 138 139 139 140 141 140 141 140 137 135 134 131 130 129 129 129 131 132 131 129 121 112 106 97 86 84 91 99 107 110 107 101 93 87 86 89 92 96 102 106 103 98 95 91 86 79 66 56 56 62 63 56 48 46 47 48 45 46 52 61 64 60 54 49 46 43 38 35 32 29 28 33 41 39 32 26 22 19 19
133 133 138 142 142 140 140 141 141 140 140 141 140 139 138 137 134 132 131 130 130 131 133 135 137 138 138 136 130 125 118 107 102 103 107 111 114 115 113 109 99 89 89 92 93 93 98 102 101 101 100 94 85 78 67 55 51 55 58 54 44 40 43 46 45 46 52 59 62 60 54 47 43 40 34 32 32 31 30 32 37 37 33 28 25 23 26
139 141 144 146 145 144 144 146 145 143 141 141 140 138 138 137 135 134 134 136 137 137 140 144 146 145 143 142 141 140 133 122 116 115 116 117 118 118 118 114 105 95 90 89 90 90 90 91 93 94 91 84 76 68 60 53 51 55 57 58 53 44 40 41 44 45 47 50 51 49 46 41 37 32 26 25 28 31 32 35 38 37 33 27 23 24 33
139 139 139 141 142 142 143 145 145 144 144 144 143 143 142 141 141 143 144 144 143 143 144 148 148 147 145 143 140 133 124 118 116 116 116 117 117 117 117 115 111 104 96 90 90 87 83 82 85 84 82 78 73 65 57 48 44 44 48 60 71 61 44 41 42 41 40 42 42 40 36 31 26 22 20 19 22 26 32 37 39 37 35 31 25 25 34
139 139 139 140 141 142 143 144 144 145 146 146 148 149 149 150 151 152 149 145 142 141 140 139 139 138 136 132 125 119 114 112 112 112 112 112 111 111 111 110 109 106 99 93 91 87 81 81 82 81 80 79 74 67 59 47 38 35 39 55 74 78 62 47 40 37 36 37 36 35 30 21 15 12 13 14 15 17 24 32 36 34 32 32 31 27 28
142 142 142 143 145 146 146 146 147 149 150 151 154 157 159 161 160 155 148 143 139 135 132 129 129 130 127 122 117 113 110 108 107 106 105 104 103 101 99 96 94 94 94 95 94 88 83 83 84 84 85 85 80 72 61 47 39 39 44 55 71 81 75 55 40 33 30 26 25 27 25 17 14 13 13 11 11 10 13 23 33 31 25 23 26 28 24
148 148 148 149 150 151 151 151 153 155 156 158 163 167 168 168 163 156 148 143 137 130 127 126 127 126 124 120 116 113 110 107 107 105 102 100 97 92 87 84 82 81 84 89 92 90 86 86 89 93 92 90 86 75 59 46 40 41 48 58 69 76 76 64 44 29 19 12 12 15 12 9 12 16 15 10 8 9 11 16 21 23 20 16 13 14 16
155 156 155 155 155 155 155 154 155 157 160 162 164 165 165 162 158 153 147 140 133 128 127 128 129 128 126 122 120 118 115 113 112 110 107 103 98 91 86 81 76 76 78 80 83 86 86 85 89 94 94 90 81 67 56 50 46 43 46 52 57 62 64 56 35 23 18 15 14 11 2 359 1 6 10 8 5 7 13 12 5 2 5 4 358 355 357
161 160 160 160 159 157 156 155 156 158 159 158 157 158 158 155 153 150 145 138 132 129 129 130 131 130 128 126 124 123 121 120 118 116 114 111 105 99 94 86 79 78 79 79 80 82 82 81 83 84 82 80 76 70 66 62 56 50 48 45 42 41 38 29 20 15 10 7 5 360 350 346 345 347 351 354 352 351 357 360 356 352 350 347 342 341 342
167 166 165 164 162 160 159 160 160 159 157 154 152 152 152 150 149 147 143 138 135 134 134 135 135 134 133 133 132 130 128 126 123 120 118 114 110 109 107 100 93 86 81 79 80 79 75 74 77 76 76 81 82 79 75 70 62 56 51 44 38 33 25 16 6 356 347 345 346 343 337 334 334 333 331 332 336 336 333 334 339 341 339 334 330 328 328
174 173 173 172 169 165 164 165 163 159 155 153 150 149 149 148 145 142 140 138 138 140 143 145 145 145 146 145 143 141 141 139 137 134 130 122 115 112 113 114 114 106 92 83 81 78 73 71 73 76 82 88 88 84 78 70 60 52 45 37 32 28 21 13 5 353 339 330 328 330 330 330 333 332 327 324 327 331 332 332 334 334 331 327 323 320 320
178 176 175 173 170 167 167 166 163 158 155 154 153 151 150 149 145 143 142 142 143 147 151 154 155 157 158 159 159 160 160 158 156 158 158 154 145 134 131 141 155 157 140 115 95 85 80 75 75 83 92 94 90 84 76 62 48 38 30 23 19 16 13 9 5 359 349 336 326 321 320 323 328 333 334 329 327 330 336 342 341 336 332 329 327 324 322
175 172 170 169 168 167 166 166 164 161 158 158 158 156 153 151 150 148 148 148 149 152 155 156 155 155 156 161 166 169 170 170 172 174 175 176 177 177 177 184 201 215 214 201 180 140 113 96 88 97 108 107 95 84 70 52 38 27 19 13 8 5 3 1 358 356 353 347 337 327 316 313 319 328 334 333 328 327 333 339 339 336 335 336 335 332 327
173 172 170 167 165 163 163 164 165 163 161 161 161 161 160 159 158 158 158 158 159 160 161 161 161 160 160 161 167 173 178 182 182 181 180 180 186 196 200 201 213 228 232 228 229 225 201 180 173 150 139 137 122 93 56 28 16 7 360 356 354 351 350 350 349 346 345 344 342 337 328 319 318 322 327 329 327 320 314 317 325 332 337 339 336 327 318
172 172 170 166 163 162 163 163 164 164 164 165 167 169 169 168 168 169 172 174 174 174 174 174 175 175 176 177 181 187 193 194 193 194 196 197 199 208 217 220 224 228 231 235 239 238 229 226 231 233 233 240 247 263 286 302 318 328 331 333 334 334 331 331 333 334 335 336 337 337 335 331 325 320 318 318 318 312 299 297 309 322 331 335 333 324 311
172 173 171 168 165 165 165 165 167 169 171 172 173 174 176 179 180 181 182 185 188 190 191 192 194 195 195 194 191 191 194 198 205 212 216 216 217 222 230 237 242 243 242 242 240 234 232 238 247 252 257 262 267 272 278 286 297 306 314 321 326 327 324 322 320 320 323 326 329 330 330 329 327 323 320 319 317 310 296 288 294 305 314 322 328 329 324
173 174 173 172 171 170 169 169 171 174 176 177 177 175 177 183 188 189 189 191 192 192 195 199 203 203 199 194 190 190 194 204 216 222 221 222 232 239 239 241 247 250 249 245 240 236 236 243 251 257 263 267 269 274 279 283 289 296 304 312 319 322 322 321 317 313 312 315 319 322 322 320 320 323 327 331 331 324 305 287 285 291 299 307 314 319 320
175 175 174 174 177 177 176 175 177 179 180 179 179 179 181 185 190 193 192 189 186 185 190 195 198 198 198 196 195 197 203 212 220 222 219 227 246 254 247 242 244 250 253 249 241 238 242 248 253 257 263 267 269 271 274 277 282 288 295 302 309 314 316 316 313 310 306 306 309 313 313 312 313 317 323 329 334 335 327 309 296 295 299 305 309 311 311
177 177 177 178 180 180 180 181 184 187 186 184 184 186 189 190 192 193 192 190 190 193 195 194 192 195 199 203 206 212 222 231 238 245 251 258 266 270 266 258 253 253 256 255 247 242 245 250 252 255 261 266 270 272 275 277 280 286 292 298 304 308 309 308 306 303 300 299 302 307 308 307 307 310 315 320 326 331 332 327 317 307 304 305 309 310 308
181 181 182 182 183 185 186 186 188 191 193 193 193 195 197 197 197 195 195 196 200 204 207 207 205 204 207 214 223 232 240 244 247 252 260 265 268 271 271 268 263 260 260 260 257 253 252 253 254 257 263 269 274 278 280 282 284 288 292 296 300 302 302 302 303 301 297 295 298 301 303 302 301 302 305 309 313 317 321 323 321 316 311 310 313 315 314
185 185 187 188 189 191 193 195 196 198 201 202 202 203 204 205 204 203 203 205 209 213 217 220 221 220 220 225 234 242 248 249 246 247 254 260 262 263 264 266 266 263 260 259 259 259 259 259 259 262 266 270 272 275 278 280 283 286 288 290 293 295 296 298 301 301 297 296 297 298 298 298 296 296 297 299 300 303 307 310 310 309 307 308 312 317 317